Погода в Карцеве

Россия / Псковская область     56°29′27″N   30°36′59″E
темп.,
°C
ветер,
м/с
пор.,
м/с
влажн.,
%
обл.,
%
осадки,
мм/ч
давл.,
гПа
погр.,
м
17 октября, вс
вс1700:00+6юз6137973 0.0 1010643
03:00+7зюз61279100 0.0 1010971
06:00+8зюз61279100 0.0 10101158
09:00+8зюз51080100 0.1 10101014
12:00+9зюз6107579 0.1 10101073
15:00+10зюз586390 0.3 10101267
18:00+8зюз4980100 0.3 10101028
21:00+7з3885100 1.1 1010998
18 октября, пн
пн1800:00+6зсз2592100 2.3 1010712
03:00+5ссз2593100 5.7 1010720
06:00+4з39914 0.5 1010446
09:00+4зюз412840 0.5 1011627
12:00+7з6106816 0.0 10111165
15:00+7зсз6116652 0.2 10121361
18:00+5з4107689 0.4 1012387
21:00+4зсз41085100 0.5 1013476
19 октября, вт
вт1900:00+4сз378765 0.1 1015612
03:00+3сз488699 0.1 1016617
06:00+4сз3776100 0.1 1018431
09:00+2сз488944 0.1 1020464
12:00+2зсз4692100 0.1 1021624
15:00+3сз488894 0.3 1022685
18:00+2сз497986 0.2 1023465
21:000сз258618 0.4 1024112
20 октября, ср
ср2000:00−2сз24885 0.0 102587
03:00−1з1283100 0.0 102572
06:00−1ююз237964 0.0 1024130
09:000ю377660 0.0 1023280
12:00+3ю5858100 0.0 1021585
15:00+5ю61355100 0.0 1017704
18:00+5ю71661100 0.0 1013742
21:00+4ю81881100 0.8 1009793
21 октября, чт
чт2100:00+6ююз71688100 4.4 1007816
03:00+6ююз71683100 4.4 1003613
06:00+7ююз71784100 0.3 1002660
09:00+7ююз71690100 2.4 1000630
12:00+8ююз71690100 1.9 998702
15:00+9ююз71788100 2.1 996809
18:00+10ююз81790100 0.1 9961162
21:00+11юз8167653 0.3 9951241